Tracking 35055 objects as of 19-Aug-2026
HD Live streaming from Space Station
objects crossing your sky now

STARLINK-31310

Track STARLINK-31310 now!
10-day predictions
STARLINK-31310 is classified as:


NORAD ID: 59092
Int'l Code: 2024-041U
Launch date: February 29, 2024
Source: United States (US)
Launch site: AIR FORCE EASTERN TEST RANGE (AFETR)
Your satellite tracking list
Your tracking list is empty




NASA's NSSDC Master Catalog

Two Line Element Set (TLE):
1 59092U 24041U   26230.04467086 -.00000249  00000-0  48160-6 0  9995
2 59092  43.0016 119.8826 0001123 265.6559  94.4164 15.27585750138949
Source of the keplerian elements: AFSPC